AirNav   Air Wisconsin Up To $57,000 Bonus
 
 389 users online  

MO59 Lee's Summit Medical Center Heliport
Lee's Summit, Missouri, USA

GOING TO LEE'S SUMMIT?


FAA INFORMATION EFFECTIVE 26 MARCH 2020

Location

FAA Identifier: MO59
Lat/Long: 38-54-13.1100N 094-19-53.6100W
38-54.218500N 094-19.893500W
38.9036417,-94.3315583
(estimated)
Elevation: 1005 ft. / 306 m (estimated)
From city: 1 mile E of LEE'S SUMMIT, MO
Time zone: UTC -5 (UTC -6 during Standard Time)
Zip code: 64086

Heliport Operations

Heliport use: Private use. Permission required prior to landing
Activation date: 09/2015
Control tower: no
ARTCC: KANSAS CITY CENTER
FSS: COLUMBIA FLIGHT SERVICE STATION
Attendance: UNATTNDED
Wind indicator: yes
Segmented circle: no

Heliport Communications

WX ASOS at LXT (4 nm NW): 124.175 (816-347-9807)
WX AWOS-3PT at LRY (18 nm S): 119.975 (816-380-5936)
WX ASOS at MKC (18 nm NW): PHONE 816-329-2843
WX ASOS at OJC (19 nm W): 119.35 (913-780-6969)

Nearby radio navigation aids

VOR radial/distance  VOR name  Freq  Var
ANXr212/14.9NAPOLEON VORTAC114.0007E
MCIr135/29.7KANSAS CITY VORTAC113.2505E
BUMr004/38.6BUTLER VORTAC115.9007E

Heliport Services

Runway Information

Helipad H1

Dimensions: 45 x 45 ft. / 14 x 14 m
Surface: concrete/gravel
Runway edge lights: PERI
Latitude: 38-54.218500N
Longitude: 094-19.893500W
Traffic pattern: leftleft

Heliport Ownership and Management from official FAA records

Ownership: Privately-owned
Owner: LEE'S SUMMIT MEDICAL CENTER
2100 SE BLUE PARKWAY
LEE'S SUMMIT, MO 64063
Phone 816-969-6000
Manager: TIMOTHY MCGINNIS
2100 SE BLUE PARKWAY
LEE'S SUMMIT, MO 64063
Phone 816-282-5086

Additional Remarks

FOR CD CTC KANSAS CITY APCH AT 816-329-2710.

Instrument Procedures

There are no published instrument procedures at MO59.

Some nearby airports with instrument procedures:

KLXT - Lee's Summit Municipal Airport (4 nm NW)
3GV - East Kansas City Airport (9 nm NE)
KLRY - Lawrence Smith Memorial Airport (18 nm S)
KMKC - Charles B Wheeler Downtown Airport (18 nm NW)
KOJC - Johnson County Executive Airport (19 nm W)
 
Loc | Ops | Rwys | IFR | FBO | Links
Com | Nav | Svcs | Stats | Notes
Aerial photo
No photo
 
Airport distance calculator
Flying to Lee's Summit Medical Center Heliport? Find the distance to fly.

From to MO59

Sunrise and sunset
Times for 06-Apr-2020
 Local
(UTC-5)
 Zulu
(UTC)
Morning civil twilight06:2711:27
Sunrise06:5411:54
Sunset19:4500:45
Evening civil twilight20:1201:12

Current date and time
Zulu (UTC)  06-Apr-2020 11:07:44
Local (UTC-5)  06-Apr-2020 06:07:44
 
METAR
KLXT 
4nm NW 
061053Z AUTO 15008KT 10SM OVC024 13/11 A2997 RMK AO2 SLP148 T01280106
KLRY 
18nm S 
061055Z AUTO 15005KT 10SM OVC025 14/12 A3000 RMK AO2
KMKC 
18nm NW 
061054Z 14004KT 10SM OVC028 14/11 A2995 RMK AO2 SLP141 T01390106
KOJC 
19nm W 
061053Z AUTO 17005KT 10SM OVC019 13/12 A2996 RMK AO2 SLP143 T01280117
TAF
KMKC 
18nm NW 
060919Z 0609/0706 10004KT P6SM SCT019 SCT028 OVC040 TEMPO 0609/0612 BKN020 OVC040 FM061500 18012G20KT P6SM OVC015 FM062100 19012G20KT P6SM BKN030
NOTAMs
Click for the latest NOTAMs
NOTAMs are issued by the DoD/FAA and will open in a separate window not controlled by AirNav.

 

 
 

Would you like to see your business listed on this page?

 If your business provides an interesting product or service to pilots, flight crews, aircraft, or users of the Lee's Summit Medical Center Heliport, you should consider listing it here.  To start the listing process, click on the button below
 
Add a business
 

Other Pages about Lee's Summit Medical Center Heliport

Update a link
 
Copyright © AirNav, LLC. All rights reserved. Privacy Policy  Contact